#timestamp,LO_Frequency,Hit,StdDev 
1626710415.0,286046999.8,N
1626710415.9,286046999.8,P
1626710435.8,286047000.4,P
1626710455.6,286047000.3,N
1626710475.5,286047000.0,N
1626710495.3,286047000.1,N
1626710515.1,286047002.0,Y
1626710535.9,286047004.4,P
1626710555.7,286047005.9,N
1626710575.5,286047007.5,P
1626710595.4,286047005.0,N
1626710615.2,286047007.1,N
1626710635.1,286047007.5,Y
1626710636.0,286047007.5,P
1626710655.8,286047000.2,N
1626710675.6,286047001.9,N
1626710695.5,286047003.6,N
1626710715.3,286047003.6,N
1626710735.1,286047005.4,N
1626710755.9,286047003.6,N
1626710775.7,286047003.2,N
1626710795.6,286047005.9,N
1626710815.4,286047005.4,N
1626710835.2,286047007.6,Y
1626710855.1,286047002.8,P
1626710856.0,286047002.8,P
1626710875.8,286047000.2,N
1626710895.7,286047001.1,N
1626710915.5,286046998.2,N
1626710935.4,286047001.2,N
1626710955.2,286046998.5,N
1626710975.1,286046998.5,N
1626710976.0,286046998.5,N
1626710995.8,286047001.2,N
1626711015.6,286046996.9,N
1626711035.5,286046997.1,N
1626711055.3,286046997.6,N
1626711075.1,286046997.8,N
1626711095.9,286046996.5,N
1626711115.7,286046999.5,N
1626711135.6,286046997.0,N
1626711155.4,286046999.1,N
1626711175.2,286046997.3,N
1626711195.1,286046997.3,N
1626711196.0,286046997.3,N
1626711215.8,286046995.6,N
1626711235.7,286046993.4,N
1626711255.5,286046994.5,N
1626711275.3,286046994.5,N
1626711295.2,286046991.8,Y
1626711315.0,286046993.7,P
1626711315.9,286046993.7,N
1626711335.7,286046996.2,N
1626711355.6,286046996.4,N
1626711375.4,286047011.9,Y
1626711395.3,286046999.5,P
1626711415.1,286046999.0,N
1626711435.8,286046996.9,N
1626711455.7,286046997.5,N
1626711475.5,286046997.4,N
1626711495.4,286046995.2,Y
1626711515.2,286046998.5,P
1626711535.0,286046999.4,N
1626711535.9,286046999.4,N
1626711555.8,286046998.9,N
1626711575.6,286046999.1,N
1626711595.5,286046999.3,N
1626711615.3,286046999.5,N
1626711635.1,286046996.9,Y
1626711655.9,286046996.6,P
1626711675.7,286046999.4,N
1626711695.5,286046997.1,N
1626711715.4,286046997.3,N
1626711735.2,286046997.2,N
1626711755.1,286046997.2,N
1626711756.0,286046997.2,N
1626711775.8,286046997.2,Y
1626711795.6,286046998.4,P
1626711815.5,286046998.8,P
1626711835.3,286046998.2,P
1626711855.2,286046998.9,N
1626711875.9,286047001.2,N
1626711895.7,286047001.0,N
1626711915.6,286047001.1,N
1626711935.4,286046998.9,N
1626711955.2,286046997.0,N
1626711975.1,286046997.0,N
1626711976.0,286046997.0,N
1626711995.8,286046998.0,N
1626712015.7,286046997.4,N
1626712035.5,286046999.2,N
1626712055.3,286046998.7,N
1626712075.2,286046997.2,N
1626712095.0,286046999.6,N
1626712095.9,286046999.6,N
1626712115.8,286046999.3,N
1626712135.6,286046997.1,N
1626712155.4,286046997.7,N
1626712175.3,286046996.9,N
1626712195.1,286046998.9,N
1626712215.8,286046996.6,N
1626712235.7,286046998.7,N
1626712255.5,286046999.4,N
1626712275.3,286047000.0,N
1626712295.2,286047001.1,N
1626712315.0,286047000.8,N
1626712315.9,286047000.8,N
1626712335.8,286046998.6,N
1626712355.6,286046996.6,N
1626712375.4,286046997.0,N
1626712395.3,286046998.7,N
1626712415.1,286046998.7,N
1626712435.9,286047000.7,N
1626712455.7,286047000.8,N
1626712475.5,286047001.1,N
1626712495.4,286046998.6,N
1626712515.2,286046999.6,N
1626712535.0,286046998.5,N
1626712535.9,286046998.5,N
1626712555.8,286047000.6,N
1626712575.6,286046998.6,N
1626712595.5,286046998.2,N
1626712615.3,286047000.4,N
1626712635.1,286047001.1,N
1626712655.9,286046998.8,N
1626712675.7,286046997.3,N
1626712695.5,286046999.2,N
1626712715.4,286046999.2,N
1626712735.2,286046996.7,N
1626712755.1,286046996.9,N
1626712756.0,286046996.9,N
1626712775.8,286046999.5,N
1626712795.6,286046996.9,N
1626712815.5,286046996.7,N
1626712835.3,286046998.4,N
1626712855.1,286046998.8,N
1626712875.9,286046996.5,N
1626712895.7,286046998.8,N
1626712915.6,286046997.4,N
1626712935.4,286046997.1,N
1626712955.2,286046996.6,N
1626712975.1,286046996.9,N
1626712976.0,286046996.9,N
1626712995.8,286046997.3,N
1626713015.8,286046997.7,N
1626713035.6,286046997.0,N
1626713055.4,286046996.5,N
1626713075.3,286046998.5,N
1626713095.1,286046998.4,N
1626713115.9,286047001.1,N
1626713135.7,286046998.9,N
1626713155.5,286046998.7,N
1626713175.4,286046999.0,N
1626713195.2,286046999.9,N
1626713215.0,286046998.2,N
1626713215.9,286046998.2,N
1626713235.8,286046999.0,N
1626713255.6,286046999.6,N
1626713275.5,286046997.2,N
1626713295.3,286046997.0,N
1626713315.1,286046997.4,N
1626713335.9,286046997.5,N
1626713355.7,286046997.7,N
1626713375.5,286046997.3,N
1626713395.4,286046999.3,N
1626713415.2,286046998.9,N
1626713435.0,286046999.4,N
1626713436.0,286046999.4,N
1626713455.8,286046998.4,N
1626713475.6,286047000.4,N
1626713495.5,286047000.4,N
1626713515.3,286047000.4,N
1626713535.1,286047000.3,N
1626713555.9,286047000.9,N
1626713575.7,286047000.9,N
1626713595.5,286047001.1,N
1626713615.4,286047000.8,N
1626713635.2,286046998.2,N
1626713655.1,286046998.4,N
1626713656.0,286046998.4,N
1626713675.8,286047001.2,N
1626713695.6,286047000.7,N
1626713715.5,286046998.2,N
1626713735.3,286046998.4,N
1626713755.1,286046996.9,N
1626713775.9,286046996.8,N
1626713795.7,286046996.7,N
1626713815.6,286046998.0,N
1626713835.4,286046997.1,N
1626713855.2,286046997.6,N
1626713875.1,286046994.9,Y
1626713876.0,286046994.9,P
1626713895.8,286046999.2,N
1626713915.7,286046998.3,N
1626713935.5,286046998.3,N
1626713955.3,286046999.3,N
1626713975.2,286046999.4,N
1626713995.0,286047000.9,N
1626713995.9,286047000.9,N
